This is the latest recevied weather packets stored in our database for station/object VA3WWD-2. If no packets are shown the sender has not sent any weather packets the latest 10 day(s).
| Time | Temp. | Humidity | Pressure | Rain* | Wind** | Luminosity | Snow |
|---|---|---|---|---|---|---|---|
| 1777906627 | 13.89° C | 50% | - | 0 mm | 0 m/s | - | - |
| 1777906329 | 13.89° C | 53% | - | 0 mm | 0 m/s | - | - |
| 1777906028 | 12.78° C | 51% | - | 0 mm | 0 m/s | - | - |
| 1777905730 | 12.78° C | 53% | - | 0 mm | 0 m/s | - | - |
| 1777905432 | 12.78° C | 54% | - | 0 mm | 0 m/s | - | - |
| 1777905131 | 12.78° C | 53% | - | 0 mm | 0 m/s | - | - |
| 1777903936 | 12.78° C | 55% | - | 0 mm | 0 m/s | - | - |
| 1777903638 | 11.67° C | 57% | - | 0 mm | 0 m/s | - | - |
| 1777903039 | 11.11° C | 58% | - | 0 mm | 0 m/s | - | - |
| 1777902440 | 11.11° C | 59% | - | 0 mm | 0 m/s | - | - |
| 1777902142 | 11.11° C | 60% | - | 0 mm | 0 m/s | - | - |
| 1777901844 | 11.11° C | 61% | - | 0 mm | 0 m/s | - | - |
| 1777901543 | 10° C | 60% | - | 0 mm | 0 m/s | - | - |
| 1777901245 | 10° C | 61% | - | 0 mm | 0 m/s | - | - |
| 1777900947 | 10.56° C | 62% | - | 0 mm | 0 m/s | - | - |
| 1777900646 | 9.44° C | 63% | - | 0 mm | 0 m/s | - | - |
| 1777900348 | 10° C | 63% | - | 0 mm | 0 m/s | - | - |
| 1777900050 | 10° C | 63% | - | 0 mm | 0 m/s | - | - |
| 1777899749 | 8.89° C | 64% | - | 0 mm | 0 m/s | - | - |
| 1777899153 | 8.89° C | 65% | - | 0 mm | 0 m/s | - | - |
| 1777898852 | 8.33° C | 65% | - | 0 mm | 0 m/s | - | - |
| 1777898256 | 8.33° C | 66% | - | 0 mm | 0 m/s | - | - |
| 1777897955 | 8.89° C | 66% | - | 0 mm | 0 m/s | - | - |
| 1777897657 | 7.78° C | 67% | - | 0 mm | 0 m/s | - | - |
| 1777897058 | 8.33° C | 68% | - | 0 mm | 0 m/s | - | - |
* Rain latest hour (hover to see other rain measurements)
** Current wind speed in m/s (hover to see current wind gust speed)